[[{"header":{"parameterUnit":"m.s-1","parameterCategory":1,"la1":30.2991,"la2":30.254,"lo1":-89.0895,"lo2":-89.0444,"dy":0.0017,"dx":0.0017,"nx":28,"ny":28,"refTime":"2024-11-27T03:00:00:Z","depth":0,"parameterNumber":2,"parameterNumberName":"U-component_of_WINDS"},"data":[0,0,0,0,0,0,0,0,0,0,0,0,0,0,0,0,0,0,0,0,0,0,0,0,0,0,0,0,0,0,0,0,0,0,0,0,0,0,0,0,0,0,0,0,0,0,0,0,0,0,0,0,0,0,0,0,0,0,-0.0602,-0.06,0,-0.0481,-0.0479,-0.0478,-0.0439,-0.0439,-0.044,-0.044,-0.0317,-0.0313,-0.0309,0,0,0,0,0,0,0,0,0,0,0,0,0,-0.0797,-0.0794,-0.0602,-0.06,-0.0599,-0.0481,-0.0479,-0.0478,-0.0438,-0.0439,-0.044,-0.044,-0.0318,-0.0314,-0.0309,0,0,0,0,0,0,0,0,0,0,0,0,0,-0.0698,-0.0793,-0.0602,-0.0565,-0.056,-0.0481,-0.0479,-0.0477,-0.0438,-0.0439,-0.044,-0.0441,-0.032,-0.0314,-0.0308,-0.0258,0,0,-0.0291,-0.0289,0,0,0,0,0,0,0,0,-0.0704,-0.0691,-0.0572,-0.0567,-0.0562,-0.0476,-0.0503,-0.0404,-0.0438,-0.0485,-0.044,-0.0441,-0.0369,-0.0359,-0.0335,-0.0252,-0.0247,-0.0291,-0.0287,-0.0285,-0.0283,0,0,0,0,0,0,0,-0.0711,-0.0696,-0.0554,-0.057,-0.0564,-0.0554,-0.0541,-0.0484,-0.0424,-0.0481,-0.0478,-0.0464,-0.0367,-0.0341,-0.0332,-0.0245,-0.0291,-0.0286,-0.0282,-0.028,-0.0112,-0.0111,0,0,0,0,0,0,-0.0724,-0.0702,-0.0558,-0.055,-0.0636,-0.055,-0.0535,-0.0503,-0.0424,-0.0413,-0.0463,-0.0462,-0.035,-0.0338,-0.0327,-0.0261,-0.0285,-0.028,-0.0276,-0.0113,-0.0111,-0.011,0,0,0,0,0,0,-0.0728,-0.0711,-0.0563,-0.0625,-0.0605,-0.0546,-0.0509,-0.05,-0.0474,-0.0411,-0.04,-0.0448,-0.035,-0.0335,-0.0275,-0.0256,-0.0277,-0.0272,-0.0114,-0.0112,-0.0111,-0.0129,0,0,0,0,0,0,-0.0734,-0.0713,-0.0694,-0.0625,-0.0602,-0.0512,-0.0508,-0.0497,-0.0464,-0.0462,-0.0394,-0.0383,-0.0349,-0.0283,-0.0269,-0.0249,-0.0267,-0.0115,-0.0113,-0.0111,-0.0129,-0.0128,-0.0126,0,0,0,0,0,-0.0741,-0.0704,-0.0693,-0.0676,-0.0576,-0.0511,-0.0498,-0.046,-0.0463,-0.0442,-0.0402,-0.0385,-0.0261,-0.0278,-0.0261,-0.0239,-0.0116,-0.0114,-0.0111,-0.013,-0.0128,-0.0126,0,0,0,0,0,0,-0.0773,-0.0695,-0.0681,-0.0621,-0.0573,-0.0505,-0.0478,-0.046,-0.041,-0.041,-0.0365,-0.035,-0.0292,-0.026,-0.028,-0.0184,-0.0188,-0.0182,-0.0207,-0.0205,-0.0204,-0.0212,-0.0263,0,0,0,0,0,-0.0773,-0.0726,-0.0661,-0.0614,-0.059,-0.0538,-0.0508,-0.0483,-0.0432,-0.0411,-0.0366,-0.0317,-0.0266,-0.0234,-0.0185,-0.0125,-0.0108,-0.0101,-0.01,-0.0099,-0.0094,-0.0058,-0.0053,-0.0102,-0.0102,-0.0102,0,0,-0.0772,-0.0724,-0.0697,-0.0619,-0.0579,-0.0531,-0.0521,-0.0472,-0.0436,-0.0404,-0.0343,-0.0309,-0.0251,-0.019,-0.0161,-0.0161,-0.0077,-0.0096,-0.0096,-0.0091,-0.0055,-0.005,-0.0046,-0.01,-0.0101,-0.0101,0,0,-0.0746,-0.0706,-0.0661,-0.062,-0.0559,-0.0525,-0.0514,-0.0448,-0.0424,-0.0362,-0.0336,-0.0293,-0.0208,-0.0166,-0.0134,-0.0091,-0.0074,-0.0077,-0.0068,-0.0034,-0.003,-0.0026,-0.0009,-0.0003,-0.0072,-0.0072,-0.0072,0,-0.0753,-0.068,-0.064,-0.0591,-0.0557,-0.0525,-0.0478,-0.0441,-0.0368,-0.0344,-0.0346,-0.0236,-0.0195,-0.0123,-0.0112,-0.0088,-0.0073,-0.0083,-0.0034,-0.0029,-0.0025,-0.0008,-0.0002,-0.0073,-0.0073,-0.0073,-0.0073,0,-0.0691,-0.0641,-0.0612,-0.054,-0.0502,-0.0455,-0.0407,-0.0374,-0.0352,-0.0317,-0.0254,-0.0203,-0.0141,-0.0123,-0.0101,-0.0047,-0.0049,-0.0042,-0.0045,-0.0022,-0.0005,0.0002,-0.0074,-0.0073,-0.0073,-0.0073,0,0,-0.0682,-0.0587,-0.0577,-0.0543,-0.0473,-0.0433,-0.0384,-0.0323,-0.0294,-0.0245,-0.0201,-0.0129,-0.0122,-0.0086,-0.0059,-0.0029,0.0005,-0.0025,-0.0023,-0.002,0.007,0.0066,0.0073,0.0016,0.0018,0.0019,0.0066,0,-0.0645,-0.0555,-0.0517,-0.0445,-0.0397,-0.0365,-0.0322,-0.0274,-0.024,-0.0194,-0.0156,-0.0105,-0.0101,-0.0078,-0.0047,-0.0006,0.0024,-0.0009,0.0058,0.006,0.0045,0.0081,0.0077,0.0119,0.0072,0.0074,0.0074,0,-0.0591,-0.0539,-0.0462,-0.0395,-0.0373,-0.0335,-0.0275,-0.0232,-0.0177,-0.0154,-0.0112,-0.0087,-0.0033,-0.004,0.0036,0.0013,0.0042,0.0067,0.0069,0.0078,0.007,0.0093,0.0133,0.014,0.0085,0.0084,0.0083,0,-0.0589,-0.0501,-0.0442,-0.0414,-0.0336,-0.0309,-0.0275,-0.022,-0.0186,-0.0133,-0.011,-0.0053,-0.0021,0.0023,0.0064,0.0055,0.0136,0.0132,0.0158,0.0157,0.0175,0.0173,0.0222,0.0191,0.0191,0.019,0.019,0,-0.0552,-0.0505,-0.044,-0.0404,-0.035,-0.0306,-0.0254,-0.0218,-0.0169,-0.0125,-0.0095,-0.0054,-0.0004,0.0044,0.0076,0.0135,0.0148,0.0169,0.0178,0.0168,0.0165,0.0189,0.0188,0.0192,0.0192,0.0191,0.0191,0,-0.0541,-0.0495,-0.0429,-0.0359,-0.0341,-0.0304,-0.0244,-0.0208,-0.0172,-0.0116,-0.01,-0.0044,0.0014,0.0058,0.0133,0.0155,0.0218,0.0225,0.0199,0.0204,0.0228,0.0225,0.0294,0.0306,0.0265,0.0265,0.0266,0,-0.0519,-0.0482,-0.0408,-0.0376,-0.0342,-0.0291,-0.0254,-0.021,-0.0173,-0.0106,-0.0077,-0.0017,0.0034,0.0124,0.0172,0.023,0.0241,0.0261,0.025,0.0239,0.0244,0.0242,0.0247,0.0263,0.0263,0.0263,0.0263,0,-0.0485,-0.0463,-0.0412,-0.0352,-0.0309,-0.0261,-0.0211,-0.0186,-0.0133,-0.0093,-0.0033,0.0006,0.0083,0.0143,0.0206,0.0241,0.0262,0.0266,0.0276,0.0267,0.0251,0.0262,0.0205,0.0265,0.0265,0.0264,0.0264,0.0264,-0.0466,-0.0431,-0.0372,-0.0315,-0.0273,-0.0227,-0.0188,-0.0147,-0.0096,-0.0029,-0.0006,0.0056,0.0113,0.02,0.0235,0.0285,0.0286,0.0299,0.0303,0.0306,0.0306,0.0241,0.0296,0.0296,0.0296,0.0296,0.0296,0,-0.0428,-0.0388,-0.0337,-0.0267,-0.0222,-0.0207,-0.0151,-0.0114,-0.0059,-0.0008,0.0042,0.0111,0.017,0.0223,0.0284,0.0313,0.0325,0.0328,0.0327,0.0336,0.03,0.0287,0.0318,0.0318,0.0318,0.0318,0.0318,0.0318,-0.0403,-0.0341,-0.0313,-0.023,-0.0191,-0.0129,-0.0098,-0.0054,-0.0013,0.0064,0.0113,0.0147,0.02,0.0265,0.032,0.0334,0.0356,0.0357,0.0374,0.034,0.0338,0.0335,0.0323,0.0361,0.0361,0.0406,0.0406,0.0406]},{"header":{"parameterUnit":"m.s-1","parameterCategory":1,"la1":30.2991,"la2":30.254,"lo1":-89.0895,"lo2":-89.0444,"dy":0.0017,"dx":0.0017,"nx":28,"ny":28,"refTime":"2024-11-27T03:00:00:Z","depth":0,"parameterNumber":3,"parameterNumberName":"V-component_of_WINDS"},"data":[0,0,0,0,0,0,0,0,0,0,0,0,0,0,0,0,0,0,0,0,0,0,0,0,0,0,0,0,0,0,0,0,0,0,0,0,0,0,0,0,0,0,0,0,0,0,0,0,0,0,0,0,0,0,0,0,0,0,3.6134,3.6134,0,3.619,3.619,3.6191,3.6192,3.6191,3.6191,3.619,3.6244,3.6246,3.6248,0,0,0,0,0,0,0,0,0,0,0,0,0,3.6025,3.6027,3.6133,3.6134,3.6135,3.619,3.619,3.6191,3.6192,3.6191,3.619,3.619,3.6243,3.6246,3.6248,0,0,0,0,0,0,0,0,0,0,0,0,0,3.6076,3.6028,3.6133,3.6142,3.6143,3.6189,3.619,3.6191,3.6192,3.6191,3.619,3.6189,3.6242,3.6245,3.6248,3.6288,0,0,3.6258,3.6259,0,0,0,0,0,0,0,0,3.6073,3.608,3.614,3.6142,3.6143,3.6183,3.6172,3.6224,3.6192,3.6174,3.619,3.6189,3.6224,3.6229,3.6241,3.6291,3.6293,3.6258,3.626,3.6262,3.6262,0,0,0,0,0,0,0,3.6069,3.6077,3.6156,3.6141,3.6143,3.6143,3.6149,3.6182,3.6204,3.6175,3.6175,3.6182,3.6225,3.6238,3.6243,3.6294,3.6258,3.6261,3.6263,3.6264,3.6383,3.6384,0,0,0,0,0,0,3.6065,3.6074,3.6154,3.6157,3.6105,3.6145,3.6152,3.6171,3.6204,3.6208,3.6183,3.6182,3.6234,3.6239,3.6245,3.6296,3.6261,3.6264,3.6266,3.6381,3.6383,3.6384,0,0,0,0,0,0,3.6062,3.6072,3.6152,3.6116,3.6126,3.6148,3.617,3.6173,3.6186,3.621,3.6213,3.6193,3.6233,3.624,3.6279,3.6298,3.6266,3.6269,3.638,3.6382,3.6384,3.6398,0,0,0,0,0,0,3.6059,3.6071,3.6087,3.6116,3.6128,3.6185,3.6171,3.6175,3.6192,3.6191,3.622,3.6224,3.6233,3.6274,3.6282,3.6302,3.6271,3.6378,3.6381,3.6383,3.6396,3.64,3.6404,0,0,0,0,0,3.6055,3.6087,3.6087,3.6097,3.6148,3.6186,3.6193,3.6204,3.6194,3.621,3.6225,3.6223,3.6294,3.6278,3.6287,3.6308,3.6377,3.638,3.6383,3.6394,3.64,3.6404,0,0,0,0,0,0,3.6057,3.6091,3.6092,3.6134,3.6158,3.6186,3.6207,3.6208,3.6234,3.6232,3.6243,3.625,3.6289,3.6301,3.6283,3.635,3.6334,3.6339,3.634,3.6345,3.6349,3.6346,3.6274,0,0,0,0,0,3.6062,3.6091,3.6119,3.6154,3.6166,3.6184,3.6201,3.6208,3.6232,3.6241,3.6259,3.6282,3.631,3.6328,3.6355,3.6397,3.6405,3.6417,3.6421,3.6424,3.6428,3.6455,3.6461,3.6394,3.6394,3.6394,0,0,3.6073,3.6096,3.6113,3.6155,3.6174,3.6203,3.6192,3.6223,3.6246,3.6246,3.6284,3.6298,3.6324,3.6366,3.6385,3.6378,3.6448,3.6427,3.643,3.6433,3.6458,3.6465,3.647,3.6396,3.6395,3.6395,0,0,3.611,3.6129,3.6161,3.6181,3.6211,3.6224,3.6232,3.6261,3.6271,3.631,3.6312,3.6337,3.6384,3.6404,3.642,3.6467,3.6466,3.6475,3.6496,3.6522,3.6527,3.6532,3.6551,3.6558,3.6479,3.6479,3.6479,0,3.612,3.6166,3.6177,3.621,3.6229,3.6232,3.6266,3.6284,3.632,3.6333,3.6325,3.6386,3.6404,3.6452,3.6463,3.6475,3.6486,3.6472,3.6526,3.653,3.6535,3.6554,3.656,3.648,3.648,3.6479,3.6479,0,3.6178,3.6209,3.6232,3.627,3.6291,3.6324,3.6341,3.6361,3.6366,3.6379,3.642,3.6442,3.6474,3.6486,3.6489,3.6535,3.653,3.6523,3.6508,3.6543,3.656,3.6567,3.6481,3.6481,3.6481,3.648,0,0,3.6216,3.6262,3.6271,3.6289,3.6323,3.6348,3.6381,3.6415,3.6433,3.6457,3.6487,3.6528,3.6523,3.6541,3.6547,3.6569,3.6609,3.6561,3.6561,3.6571,3.6663,3.667,3.6677,3.6608,3.6609,3.661,3.6662,0,3.6258,3.632,3.6332,3.6385,3.6416,3.642,3.6449,3.6473,3.6487,3.6515,3.6529,3.6559,3.6549,3.6561,3.6583,3.6599,3.6627,3.6595,3.6636,3.6637,3.6632,3.6686,3.6693,3.674,3.6668,3.6669,3.667,0,3.6315,3.6345,3.6402,3.6435,3.6448,3.6474,3.6508,3.6534,3.6561,3.657,3.6592,3.6596,3.6632,3.6614,3.6663,3.6641,3.6658,3.6669,3.6671,3.6677,3.6657,3.6696,3.6755,3.6763,3.668,3.668,3.6679,0,3.6342,3.6395,3.6437,3.6452,3.6491,3.651,3.6526,3.6553,3.6573,3.6602,3.6616,3.6647,3.6664,3.6689,3.6702,3.6687,3.6751,3.6734,3.676,3.676,3.6775,3.6774,3.684,3.6782,3.6782,3.6782,3.6781,0,3.6389,3.6424,3.645,3.6476,3.6516,3.653,3.6569,3.6585,3.6609,3.6638,3.6642,3.6669,3.6684,3.6713,3.6723,3.6764,3.6771,3.678,3.6783,3.6781,3.678,3.6794,3.6792,3.6784,3.6783,3.6783,3.6782,0,3.6425,3.6443,3.649,3.6524,3.6533,3.6561,3.659,3.6615,3.663,3.6667,3.6676,3.6698,3.6733,3.6749,3.679,3.6798,3.6845,3.6844,3.6837,3.6839,3.6865,3.6864,3.6944,3.6957,3.6888,3.6888,3.6889,0,3.6455,3.6483,3.6521,3.6542,3.656,3.6592,3.6615,3.6629,3.6652,3.6687,3.6709,3.6744,3.6774,3.6829,3.6849,3.6882,3.6883,3.6909,3.6888,3.6887,3.6887,3.6886,3.689,3.6913,3.6914,3.6915,3.6915,0,3.6507,3.6516,3.6548,3.6584,3.6611,3.6639,3.6667,3.6684,3.6703,3.6728,3.6765,3.6788,3.6833,3.6869,3.6904,3.692,3.6922,3.6922,3.693,3.693,3.6926,3.6932,3.685,3.692,3.6919,3.6919,3.6919,3.6919,3.6543,3.6569,3.6601,3.6638,3.6661,3.6688,3.6715,3.6733,3.6765,3.6805,3.6811,3.6851,3.688,3.6927,3.6945,3.6976,3.697,3.6981,3.6984,3.6988,3.6991,3.6919,3.6982,3.6982,3.6982,3.6982,3.6981,0,3.6598,3.662,3.6653,3.6694,3.6723,3.6723,3.6754,3.6778,3.6815,3.6842,3.6872,3.6916,3.6951,3.6974,3.701,3.7031,3.7033,3.704,3.704,3.7044,3.6993,3.6984,3.7038,3.7038,3.7038,3.7038,3.7038,3.7038,3.663,3.6676,3.6689,3.6746,3.6767,3.6808,3.6827,3.6852,3.6874,3.6924,3.6954,3.697,3.6996,3.7034,3.7067,3.7073,3.7087,3.7095,3.7101,3.7053,3.7047,3.7042,3.7033,3.7097,3.7097,3.715,3.715,3.7151]}]]